SL-16 DEB, 18417

Orbit data source: Space-Track

SL-16 DEB, 18417 is space debris in LEO originally from a launch on Wed, 18 Mar 1987 UTC launched from the Tyuratam Missile And Space Complex (TTMTR). Debris objects in space refer to the collection of defunct objects orbiting the Earth. Examples of debris include non-operational satellites, rocket bodies, and fragments generated from explosions, collisions, or faulty payload assembly.

Loading next visibility...
Identifier
18417, 1987-027D
Orbit
LEO
Country
Flag of CISCIS
Related business
Manufacturer
Yuzhnoe
Mission
Spacecraft
Bus & Motor
SEP MOTOR COVER, Unknown motor
Mass
~0 kg wet, ~1 kg dry
Launch date (UTC)
1987-03-18 (39 years ago)
Launch vehicle
Unknown
Launch site
Tyuratam Missile And Space Complex (TTMTR)
Object type
Payload
Rocket body
Debris
Shape & HBR
Unknown shape, 0.1 m
Radar Cross Section
Small (<0.1 m²)

Expand to show TLE details & history
Last TLE update: 21 hours ago

TLE from 21 hours ago
0 SL-16 DEB
1 18417U 87027D   25349.41453990  .00000089  00000-0  11970-3 0  9991
2 18417  70.9995 344.2034 0201682 179.4516 299.9024 13.74619995942266
Epoch: 2025-12-15T09:56Z
TLE epoch observation values (Epoch: 2025-12-15T09:56:56.247Z)
Latitude
57.25142°
Longitude
-101.52256°
Altitude
920.356 km
Speed
7.433 km/s
True Right ascension
08h 48m 06s
True Declination
57° 05' 54"
Sunlit
Object was in full shadow at epoch
Visualization orbit readout
Latitude
Unknown
Longitude
Unknown
Altitude
Unknown
Speed
Unknown
Apparent Right ascension
Unknown
Apparent Declination
Unknown
Sunlit
N/A
Visualization observer readout
Local Sidereal Time
05:17:50
Azimuth
Unknown
Elevation
Unknown
Doppler factor
Unknown
Orbital elements
Apogee altitude
1,129.415 km
Perigee altitude
832.574 km
Semi-major axis
7,359.132 km
Eccentricity
0.02017
Inclination
70.9995°
RAAN
344.2034°
Arg. of periapsis
179.4516°
True anomaly
297.8739°
Mean anomaly
299.9024°
Eccentric anomaly
298.89066°
Mean motion
3.43798 °/min
Orbital period
104.71 mins
BSTAR
0.0001197
Loading maneuver chart data...
Computing Atmospheric mass density...
Loading historical data...
Loading historical data...
Loading historical data...
Loading historical data...
Loading historical data...
Loading historical data...
Loading historical data...

Documentation

Showing up to 5 results
|